Batesville, AR

11:35 PM CST on December 12, 2019 (GMT -0600)
Batesville Regional

Weather History for KBVX - November, 2019

Change the Weather History Date:

Friday, November 15, 2019

  Actual Average Record
Temperature  
Mean Temperature 41 °F -  
Max Temperature 54 °F 60 °F 82 °F (1955)
Min Temperature 28 °F 40 °F 19 °F (2014)
Degree Days  
Heating Degree Days 24    
Moisture  
Dew Point 27 °F    
Average Humidity 69    
Maximum Humidity 96    
Minimum Humidity 26    
Precipitation  
Precipitation 0.00 in - - ()
Sea Level Pressure  
Sea Level Pressure 30.39 in    
Wind  
Wind Speed 3 mph ()    
Max Wind Speed 8 mph    
Max Gust Speed -    
Visibility 10.0 miles    
Events      
Averages and records for this station are not official NWS values.
T = Trace of Precipitation, MM = Missing Value Source: Averaged Metar Reports

Daily Weather History Graph

Daily Weather History Graph

Search for Another Location

Airport or City:

Astronomy

Nov. 15, 2019 Rise Set
Actual Time 6:42 AM CST 4:59 PM CST
Civil Twilight 6:15 AM CST 5:26 PM CST
Nautical Twilight 5:44 AM CST 5:57 PM CST
Astronomical Twilight 5:14 AM CST 6:27 PM CST
Moon 7:39 PM CST (11/15) 9:35 AM CST (11/15)
Length of Visible Light 11h 11m
Length of Day
10h 17m
Waning Gibbous, 90% of the Moon is Illuminated
Nov 15
Waning Gibbous
Nov 19
Last Quarter
Nov 26
New
Dec 4
First Quarter
Dec 11
Full

Hourly Weather History & Observations

Time (CST) Temp. Windchill Dew Point Humidity Pressure Visibility Wind Dir Wind Speed Gust Speed Precip Events Conditions
12:56 AM 30.9 °F 27.5 °F 28.9 °F 92% 30.40 in 10.0 mi NW 3.5 mph - N/A   Clear
1:56 AM 30.9 °F 27.5 °F 28.9 °F 92% 30.40 in 10.0 mi NW 3.5 mph - N/A   Clear
2:56 AM 28.0 °F - 26.1 °F 92% 30.40 in 10.0 mi Calm Calm - N/A   Clear
3:56 AM 28.9 °F 25.2 °F 28.0 °F 96% 30.40 in 10.0 mi NW 3.5 mph - N/A   Clear
4:56 AM 28.9 °F 22.8 °F 28.0 °F 96% 30.42 in 10.0 mi NW 5.8 mph - N/A   Clear
5:56 AM 28.0 °F 24.2 °F 27.0 °F 96% 30.43 in 10.0 mi NW 3.5 mph - N/A   Clear
7:56 AM 30.0 °F - 28.0 °F 92% 30.46 in 10.0 mi Calm Calm - N/A   Clear
8:56 AM 36.0 °F 32.1 °F 28.9 °F 76% 30.47 in 10.0 mi Variable 4.6 mph - N/A   Clear
10:56 AM 45.0 °F 42.6 °F 28.9 °F 53% 30.44 in 10.0 mi Variable 4.6 mph - N/A   Clear
11:56 AM 48.0 °F - 27.0 °F 44% 30.41 in 10.0 mi Calm Calm - N/A   Clear
12:56 PM 51.1 °F - 25.0 °F 36% 30.38 in 10.0 mi Variable 3.5 mph - N/A   Clear
1:56 PM 52.0 °F - 23.0 °F 32% 30.36 in 10.0 mi Variable 3.5 mph - N/A   Clear
2:56 PM 54.0 °F - 21.9 °F 29% 30.35 in 10.0 mi NE 8.1 mph - N/A   Clear
3:56 PM 53.1 °F - 19.0 °F 26% 30.34 in 10.0 mi Variable 4.6 mph - N/A   Clear
4:56 PM 50.0 °F - 19.9 °F 31% 30.33 in 10.0 mi NE 3.5 mph - N/A   Clear
5:56 PM 43.0 °F 41.3 °F 25.0 °F 49% 30.34 in 10.0 mi East 3.5 mph - N/A   Clear
6:56 PM 39.9 °F 35.8 °F 30.9 °F 70% 30.35 in 10.0 mi ESE 5.8 mph - N/A   Clear
7:56 PM 35.1 °F - 30.0 °F 82% 30.36 in 10.0 mi Calm Calm - N/A   Clear
8:56 PM 34.0 °F - 28.9 °F 82% 30.37 in 10.0 mi Calm Calm - N/A   Clear
9:56 PM 34.0 °F 29.8 °F 28.0 °F 79% 30.36 in 10.0 mi NW 4.6 mph - N/A   Clear
10:56 PM 30.9 °F - 28.0 °F 89% 30.35 in 10.0 mi Calm Calm - N/A   Clear
11:56 PM 30.0 °F - 27.0 °F 88% 30.35 in 10.0 mi Calm Calm - N/A   Clear